COSMOS 2454 [-]

Last updated on Wed Jun 28 2023 00:03:31 GMT+0000 (Coordinated Universal Time)

1 35635U 09039A 23178.43498705 .00000095 00000+0 64561-4 0 9993 2 35635 82.9562 130.3901 0020472 123.1070 356.7043 13.89738647706773
UTC large
Height (km)
Speed (km/s)
/
Latitude / Longitude
Inclination (degrees)
Orbital Period (minutes)
Azimuth
Elevation
Range (km)
Doppler Factor

Next 0 passes for location: London (51.5072 / 0.1276)

Sorry there are no passes over London.
COSMOS 2454 [-]